Regional Weather Roundup
Issued by NWS

Home | Current Version | Previous Version | Graphics & Text | Print | Product List | Glossary Off
Versions: 1 2 3 4 5 6 7 8 9 10 11 12 13 14 15 16 17 18 19 20 21 22 23 24 25 26 27 28 29 30 31 32 33 34 35 36 37 38 39 40 41 42 43 44 45 46 47 48 49 50

000
ASUS43 KTOP 051308
RWRKS

WEATHER ROUNDUP FOR KANSAS
NATIONAL WEATHER SERVICE GOODLAND KS
700 AM CST THU MAR 05 2015

NOTE:  "FAIR" INDICATES FEW OR NO CLOUDS BELOW 12,000 FEET WITH NO
SIGNIFICANT WEATHER AND/OR OBSTRUCTIONS TO VISIBILITY.

KSZ001>006-013>018-027>032-041>047-051400-
NORTHWEST KANSAS

CITY           SKY/WX    TMP DP  RH WIND       PRES   REMARKS
GOODLAND       CLEAR     13   7  77 SW12      30.28S WCI  -1
HAYS           FAIR       9  -4  56 CALM      30.40F
HILL CITY      CLEAR      4  -3  73 NE3       30.40S
RUSSELL        CLEAR     12   3  67 SE9       30.42R
$$

KSZ061>065-074>080-084>089-051400-
SOUTHWEST KANSAS

CITY           SKY/WX    TMP DP  RH WIND       PRES   REMARKS
DODGE CITY     CLEAR     18  10  71 W8        30.41R
ELKHART          N/A     17   8  67 W14         N/A  WCI   3
GARDEN CITY    CLEAR     13  10  88 SW8       30.38S
GREAT BEND     CLEAR     12   3  67 CALM      30.44S
LIBERAL        PTCLDY    10   5  79 W3        30.42R
PRATT          CLEAR     10   3  72 W8        30.44S
$$

KSZ066>073-081>083-090>101-051400-
SOUTHEAST KANSAS

CITY           SKY/WX    TMP DP  RH WIND       PRES   REMARKS
CHANUTE        CLEAR     14   8  77 N6        30.53R
COFFEYVILLE    FAIR      14  10  84 NW5       30.54R
HUTCHINSON     CLEAR     10   3  73 E3        30.48S
MEDICINE LODGE   N/A     11   6  81 CALM      30.48S
NEWTON         CLEAR     10   0  61 E3        30.50R
PARSONS        CLEAR     11   8  88 CALM      30.54R
WICHITA INTL   PTCLDY    11   6  81 NW3       30.51R
WICHITA JABRA  CLEAR     12   5  73 NE3       30.50R
WICHITA MCCONL CLEAR     16   7  67 NE2       30.51R
WINFIELD       CLEAR     14  10  84 CALM      30.53R
$$

KSZ007>012-019>026-033>040-048>060-102>105-051400-
NORTHEAST KANSAS

CITY           SKY/WX    TMP DP  RH WIND       PRES   REMARKS
CONCORDIA      CLEAR      6   0  76 SE7       30.49R
EMPORIA        CLEAR      9   2  73 NE6       30.52R
LAWRENCE       CLEAR      5   1  83 CALM      30.56R
MANHATTAN      CLEAR     10   3  73 CALM      30.54R
MARYSVILLE     CLEAR      5   1  85 S3        30.52R
OLATHE IND     CLEAR      8   1  73 N7        30.54R
OLATHE EXE     CLEAR     12   0  58 N6        30.52R
SALINA         CLEAR     13   3  64 SE5       30.51S
TOPEKA BILLARD CLEAR     10   1  67 CALM      30.56S
TOPEKA FORBES  CLEAR     11   3  70 N3        30.54R
$$


USA.gov is the U.S. government's official web portal to all federal, state and local government web resources and services.